GFSSE_prec_pwat_069.txt.gz
Precipitable_Water
1.54 1.72 1.84 1.73 1.67 1.56 1.53 1.53 1.48 1.39 1.35 1.33 1.23 1.09 0.96 0.91 0.94 1.01 1.05 1.02 1.04 1.07 1.04 0.99 0.90 0.82 0.81 0.85 0.88 0.93 0.94 0.92 0.89 0.86 0.89 0.93 0.92 0.88 0.87 0.86 0.90 0.92 0.90
1.53 1.73 1.97 1.84 1.81 1.66 1.61 1.57 1.48 1.40 1.42 1.39 1.18 0.98 0.89 0.93 1.05 1.13 1.10 1.09 1.04 1.01 0.95 0.85 0.77 0.75 0.83 0.92 0.98 1.02 1.05 0.99 0.92 0.87 0.84 0.86 0.88 0.88 0.85 0.85 0.87 0.92 0.91
1.48 1.58 1.69 1.99 1.91 1.78 1.68 1.62 1.51 1.47 1.51 1.40 1.07 0.92 0.98 1.08 1.12 1.09 1.12 1.07 1.02 0.94 0.84 0.81 0.75 0.72 0.83 0.90 0.94 0.96 0.99 0.98 0.90 0.84 0.77 0.83 0.84 0.83 0.82 0.82 0.81 0.82 0.83
1.23 1.23 1.26 1.37 1.89 1.90 1.79 1.70 1.60 1.54 1.54 1.38 0.99 1.00 1.13 1.16 1.11 1.10 1.08 1.03 0.97 0.90 0.86 0.80 0.73 0.73 0.82 0.90 0.90 0.91 0.96 0.92 0.86 0.82 0.69 0.72 0.76 0.77 0.76 0.75 0.76 0.77 0.83
1.15 1.12 1.11 1.24 1.54 1.96 1.81 1.72 1.66 1.60 1.57 1.33 0.99 1.08 1.20 1.21 1.11 1.08 1.03 0.99 0.93 0.90 0.83 0.76 0.71 0.76 0.83 0.88 0.89 0.88 0.95 0.91 0.85 0.69 0.67 0.68 0.70 0.73 0.71 0.67 0.68 0.71 0.79
1.38 1.34 1.44 1.70 1.94 1.94 1.84 1.80 1.71 1.64 1.52 1.23 0.99 1.09 1.21 1.24 1.12 1.05 1.01 0.95 0.92 0.88 0.81 0.75 0.70 0.74 0.83 0.86 0.86 0.95 0.95 0.92 0.78 0.63 0.65 0.67 0.69 0.70 0.65 0.64 0.65 0.69 0.70
1.41 1.53 1.63 1.78 1.99 1.96 1.93 1.82 1.71 1.64 1.51 1.17 1.04 1.16 1.24 1.25 1.11 1.05 1.00 0.95 0.92 0.90 0.85 0.79 0.71 0.69 0.80 0.85 0.89 0.96 0.97 0.92 0.84 0.71 0.64 0.65 0.68 0.67 0.66 0.64 0.64 0.67 0.67
1.46 1.55 1.68 1.76 1.71 1.68 1.60 1.85 1.74 1.61 1.43 1.17 1.13 1.19 1.25 1.24 1.10 1.02 0.99 0.95 0.94 0.93 0.88 0.82 0.75 0.69 0.76 0.84 0.89 0.91 0.97 0.91 0.83 0.72 0.63 0.66 0.67 0.67 0.66 0.64 0.63 0.64 0.64
1.44 1.58 1.59 1.55 1.55 1.43 1.57 1.87 1.76 1.61 1.45 1.25 1.20 1.22 1.29 1.23 1.14 1.04 1.00 0.98 1.00 0.99 0.96 0.89 0.79 0.71 0.72 0.80 0.83 0.86 0.93 0.88 0.81 0.76 0.63 0.64 0.65 0.65 0.64 0.62 0.61 0.62 0.62
1.44 1.51 1.49 1.47 1.46 1.51 1.50 1.56 1.60 1.50 1.40 1.36 1.30 1.27 1.27 1.27 1.18 1.05 1.00 1.01 1.03 1.05 1.02 0.90 0.81 0.71 0.73 0.76 0.76 0.74 0.88 0.88 0.77 0.72 0.61 0.62 0.65 0.64 0.63 0.61 0.60 0.61 0.62
1.39 1.45 1.50 1.45 1.47 1.47 1.47 1.49 1.48 1.42 1.30 1.33 1.35 1.30 1.28 1.26 1.16 1.06 1.04 1.03 1.07 1.10 1.06 0.95 0.80 0.73 0.73 0.69 0.70 0.71 0.79 0.80 0.74 0.68 0.63 0.63 0.68 0.66 0.64 0.60 0.59 0.59 0.59
1.26 1.35 1.43 1.42 1.41 1.44 1.46 1.48 1.45 1.44 1.41 1.33 1.33 1.32 1.26 1.15 1.08 1.04 1.06 1.09 1.10 1.10 1.06 0.96 0.86 0.81 0.73 0.68 0.69 0.66 0.65 0.68 0.64 0.61 0.63 0.65 0.66 0.65 0.62 0.59 0.57 0.58 0.58
1.26 1.30 1.36 1.40 1.45 1.41 1.38 1.37 1.38 1.37 1.36 1.35 1.33 1.19 1.12 1.08 1.04 1.02 1.04 1.09 1.10 1.07 1.03 0.98 0.92 0.86 0.73 0.66 0.63 0.58 0.58 0.59 0.59 0.59 0.63 0.63 0.67 0.68 0.64 0.62 0.59 0.58 0.60
1.21 1.29 1.36 1.43 1.47 1.43 1.40 1.38 1.42 1.38 1.28 1.26 1.18 1.13 1.07 1.02 0.98 0.98 0.98 1.04 1.05 1.03 1.00 0.98 0.97 0.87 0.71 0.63 0.60 0.55 0.53 0.52 0.50 0.53 0.60 0.61 0.67 0.70 0.70 0.68 0.66 0.64 0.60
1.16 1.27 1.35 1.43 1.43 1.43 1.41 1.45 1.35 1.26 1.19 1.27 1.18 1.14 1.09 1.01 0.97 0.96 0.97 1.01 1.06 1.04 1.03 1.05 0.98 0.88 0.74 0.62 0.60 0.53 0.50 0.52 0.57 0.56 0.56 0.62 0.68 0.71 0.77 0.71 0.66 0.65 0.65
1.22 1.24 1.32 1.33 1.40 1.45 1.43 1.36 1.29 1.29 1.23 1.22 1.13 1.13 1.13 1.07 0.97 0.96 0.97 1.00 1.07 1.08 1.13 1.06 0.98 0.85 0.76 0.62 0.58 0.55 0.54 0.55 0.63 0.63 0.62 0.61 0.67 0.70 0.69 0.66 0.64 0.61 0.59
1.23 1.27 1.29 1.34 1.37 1.37 1.30 1.27 1.31 1.29 1.24 1.15 1.17 1.21 1.14 1.08 0.97 0.96 0.96 0.99 1.09 1.15 1.16 1.09 0.96 0.82 0.76 0.65 0.55 0.55 0.55 0.57 0.58 0.63 0.67 0.70 0.74 0.73 0.70 0.64 0.62 0.60 0.56
1.27 1.27 1.29 1.35 1.31 1.29 1.26 1.23 1.24 1.21 1.17 1.18 1.19 1.16 1.09 1.08 1.03 1.03 0.99 1.02 1.14 1.16 1.17 1.10 0.95 0.81 0.73 0.66 0.55 0.55 0.56 0.59 0.57 0.58 0.67 0.71 0.74 0.75 0.74 0.67 0.63 0.57 0.53
1.12 1.19 1.20 1.26 1.24 1.28 1.26 1.15 1.17 1.15 1.14 1.16 1.12 1.08 1.09 1.06 1.04 1.05 1.00 1.07 1.14 1.15 1.14 1.07 0.96 0.88 0.75 0.67 0.58 0.55 0.58 0.61 0.64 0.64 0.65 0.69 0.72 0.73 0.71 0.70 0.61 0.57 0.58
1.01 1.09 1.17 1.17 1.13 1.12 1.10 1.08 1.08 1.08 0.98 0.98 0.96 0.97 0.98 1.00 1.02 1.04 1.04 1.07 1.11 1.14 1.11 1.07 1.00 0.92 0.84 0.72 0.64 0.61 0.62 0.64 0.67 0.67 0.65 0.65 0.65 0.67 0.67 0.67 0.66 0.65 0.64
0.88 0.90 0.91 0.85 0.89 0.93 0.88 0.81 0.78 0.78 0.89 0.91 0.91 0.96 0.96 0.94 0.95 0.99 1.02 1.07 1.12 1.09 1.10 1.06 1.00 0.93 0.85 0.81 0.77 0.73 0.70 0.69 0.70 0.71 0.69 0.69 0.72 0.72 0.68 0.68 0.66 0.65 0.64
0.71 0.74 0.79 0.79 0.79 0.85 0.81 0.89 0.96 0.90 0.89 0.91 0.90 0.94 0.91 0.91 0.99 0.99 1.02 1.08 1.14 1.14 1.11 1.06 1.04 0.98 0.96 0.94 0.82 0.80 0.68 0.73 0.76 0.76 0.77 0.74 0.73 0.75 0.72 0.72 0.68 0.65 0.62
0.61 0.63 0.68 0.76 0.85 0.88 0.88 0.92 0.88 0.89 0.83 0.78 0.79 0.81 0.89 0.98 1.06 1.13 1.13 1.20 1.16 1.13 1.10 1.14 1.11 1.08 0.99 1.03 1.00 0.90 0.76 0.68 0.74 0.81 0.80 0.80 0.78 0.76 0.75 0.72 0.68 0.65 0.64
0.65 0.69 0.71 0.73 0.76 0.84 0.82 0.73 0.71 0.71 0.71 0.77 0.76 0.85 0.93 1.06 1.11 1.13 1.12 1.12 1.12 1.09 1.11 1.13 1.15 1.13 1.10 1.02 1.02 1.00 0.94 0.89 0.76 0.69 0.78 0.82 0.79 0.76 0.74 0.70 0.68 0.67 0.65
0.72 0.74 0.75 0.79 0.82 0.79 0.79 0.79 0.75 0.72 0.71 0.78 0.82 0.83 0.93 1.06 1.13 1.17 1.20 1.20 1.18 1.20 1.20 1.18 1.15 1.14 1.15 1.13 1.05 0.98 0.96 0.94 0.91 0.78 0.71 0.77 0.79 0.77 0.72 0.70 0.68 0.67 0.65
0.75 0.78 0.79 0.78 0.77 0.77 0.76 0.86 0.90 0.86 0.85 0.83 0.85 0.87 0.95 1.04 1.14 1.18 1.24 1.19 1.13 1.13 1.18 1.18 1.19 1.20 1.18 1.16 1.10 1.03 0.97 0.91 0.86 0.80 0.75 0.74 0.73 0.72 0.67 0.70 0.68 0.66 0.63

GFSSE_prec_pwat_072.txt.gz
Precipitable_Water
1.53 1.69 1.65 1.60 1.42 1.60 1.51 1.58 1.44 1.36 1.32 1.31 1.26 1.19 1.10 1.03 0.99 0.97 0.94 0.93 1.04 1.09 1.04 1.03 1.00 0.95 0.92 0.93 0.93 0.92 0.91 0.88 0.91 0.92 0.93 0.90 0.88 0.88 0.90 0.90 0.90 0.90 0.89
1.70 1.74 1.65 1.62 1.56 1.60 1.59 1.55 1.47 1.38 1.34 1.30 1.24 1.17 1.07 1.00 0.95 0.93 0.94 1.02 1.03 1.01 0.97 0.94 0.93 0.95 0.98 1.01 1.01 0.95 0.87 0.84 0.81 0.83 0.85 0.87 0.87 0.85 0.89 0.90 0.88 0.94 0.95
1.70 1.80 1.75 1.67 1.58 1.62 1.73 1.64 1.50 1.43 1.39 1.30 1.17 1.08 1.05 1.04 1.01 0.98 1.01 1.01 0.97 0.89 0.83 0.89 0.94 0.97 0.98 0.96 0.99 0.99 0.88 0.83 0.78 0.81 0.82 0.82 0.84 0.86 0.84 0.80 0.88 0.92 0.93
1.62 1.77 1.79 1.67 1.56 1.37 1.59 1.77 1.58 1.49 1.43 1.27 1.07 1.08 1.10 1.09 1.01 0.99 0.99 0.96 0.88 0.80 0.80 0.89 0.93 0.93 0.89 0.88 0.93 0.91 0.85 0.82 0.73 0.71 0.72 0.74 0.77 0.78 0.76 0.76 0.85 0.87 0.86
1.49 1.59 1.73 1.64 1.51 1.35 1.45 1.72 1.72 1.57 1.48 1.25 1.10 1.17 1.19 1.13 1.06 0.99 0.94 0.88 0.85 0.81 0.80 0.87 0.90 0.87 0.81 0.87 0.89 0.89 0.84 0.74 0.68 0.66 0.68 0.69 0.71 0.72 0.72 0.75 0.78 0.79 0.76
1.19 1.46 1.53 1.51 1.44 1.39 1.49 1.62 1.87 1.63 1.53 1.28 1.20 1.22 1.17 1.12 1.05 0.99 0.91 0.89 0.85 0.81 0.79 0.85 0.87 0.82 0.87 0.92 0.93 0.92 0.85 0.73 0.65 0.67 0.68 0.70 0.69 0.70 0.68 0.71 0.69 0.67 0.69
1.40 1.43 1.62 1.55 1.46 1.60 1.63 1.70 1.82 1.72 1.55 1.31 1.18 1.18 1.17 1.12 1.05 0.95 0.91 0.89 0.84 0.78 0.76 0.82 0.86 0.82 0.87 0.96 0.94 0.91 0.87 0.83 0.67 0.67 0.66 0.67 0.69 0.70 0.71 0.71 0.68 0.67 0.64
1.42 1.50 1.70 1.73 1.66 1.59 1.65 1.70 1.80 1.68 1.52 1.44 1.45 1.24 1.16 1.12 1.02 0.97 0.96 0.92 0.87 0.80 0.73 0.77 0.82 0.83 0.84 0.99 0.98 0.93 0.90 0.83 0.74 0.66 0.68 0.69 0.71 0.70 0.69 0.68 0.65 0.64 0.64
1.49 1.51 1.60 1.68 1.65 1.57 1.52 1.70 1.79 1.68 1.57 1.39 1.30 1.26 1.19 1.11 1.04 1.00 0.98 0.94 0.88 0.80 0.72 0.69 0.80 0.89 0.84 0.88 0.98 0.97 0.88 0.81 0.75 0.66 0.66 0.68 0.70 0.68 0.66 0.66 0.64 0.63 0.61
1.44 1.47 1.50 1.57 1.48 1.53 1.44 1.54 1.66 1.56 1.52 1.47 1.39 1.35 1.19 1.09 1.04 1.02 1.01 0.98 0.92 0.84 0.74 0.68 0.78 0.86 0.83 0.85 0.92 0.95 0.90 0.80 0.70 0.63 0.61 0.66 0.69 0.68 0.65 0.62 0.62 0.61 0.60
1.36 1.41 1.48 1.48 1.46 1.46 1.42 1.45 1.49 1.47 1.47 1.47 1.43 1.32 1.20 1.10 1.06 1.02 1.04 1.04 1.00 0.89 0.78 0.74 0.81 0.83 0.82 0.80 0.87 0.89 0.85 0.77 0.68 0.62 0.63 0.68 0.70 0.66 0.63 0.62 0.62 0.64 0.63
1.26 1.35 1.45 1.46 1.43 1.43 1.46 1.44 1.47 1.45 1.46 1.41 1.41 1.32 1.21 1.09 1.05 1.05 1.07 1.07 1.03 0.95 0.84 0.81 0.82 0.83 0.76 0.70 0.74 0.81 0.75 0.71 0.64 0.63 0.67 0.68 0.68 0.66 0.63 0.62 0.61 0.61 0.64
1.27 1.34 1.39 1.42 1.42 1.37 1.38 1.38 1.45 1.45 1.45 1.40 1.35 1.32 1.21 1.12 1.09 1.09 1.06 1.06 1.05 0.98 0.94 0.94 0.91 0.78 0.69 0.64 0.64 0.69 0.68 0.65 0.65 0.65 0.66 0.65 0.68 0.68 0.65 0.61 0.63 0.63 0.61
1.20 1.26 1.31 1.37 1.38 1.38 1.37 1.38 1.41 1.41 1.38 1.39 1.40 1.34 1.19 1.08 1.03 1.00 0.99 1.03 1.01 1.00 0.99 0.99 0.88 0.76 0.68 0.64 0.59 0.60 0.60 0.60 0.60 0.63 0.65 0.65 0.70 0.72 0.72 0.68 0.64 0.61 0.59
1.18 1.26 1.30 1.37 1.36 1.38 1.35 1.36 1.38 1.41 1.42 1.32 1.26 1.30 1.13 1.00 0.97 0.97 0.98 1.00 1.00 1.02 1.03 0.99 0.92 0.84 0.67 0.61 0.58 0.56 0.54 0.54 0.57 0.63 0.68 0.70 0.72 0.72 0.73 0.72 0.71 0.69 0.64
1.20 1.25 1.31 1.35 1.35 1.36 1.34 1.32 1.34 1.36 1.30 1.28 1.27 1.16 1.05 0.99 0.97 0.95 0.94 0.97 1.00 1.02 1.06 1.01 0.96 0.86 0.72 0.61 0.58 0.55 0.56 0.57 0.59 0.59 0.69 0.72 0.74 0.76 0.78 0.75 0.71 0.65 0.61
1.23 1.29 1.34 1.40 1.39 1.36 1.37 1.39 1.39 1.36 1.27 1.18 1.14 1.13 1.05 1.02 0.97 0.95 0.91 0.95 1.01 1.03 1.09 1.05 0.97 0.86 0.74 0.67 0.56 0.55 0.55 0.58 0.61 0.60 0.63 0.70 0.76 0.76 0.76 0.70 0.68 0.64 0.61
1.24 1.30 1.35 1.40 1.39 1.38 1.36 1.34 1.31 1.28 1.24 1.17 1.14 1.14 1.10 1.03 0.99 0.96 0.90 0.90 1.03 1.07 1.12 1.08 1.00 0.86 0.75 0.70 0.59 0.54 0.55 0.56 0.62 0.62 0.66 0.71 0.76 0.77 0.77 0.74 0.69 0.65 0.59
1.18 1.27 1.31 1.36 1.33 1.32 1.29 1.28 1.26 1.24 1.23 1.15 1.12 1.12 1.10 1.04 1.02 0.97 0.91 0.94 1.04 1.08 1.11 1.10 1.05 0.93 0.81 0.73 0.64 0.59 0.55 0.58 0.61 0.64 0.66 0.72 0.75 0.77 0.79 0.77 0.71 0.64 0.63
1.11 1.26 1.31 1.29 1.28 1.28 1.24 1.22 1.22 1.18 1.17 1.14 1.13 1.16 1.12 1.10 1.03 0.97 0.93 0.94 1.04 1.04 1.09 1.09 1.03 0.99 0.89 0.80 0.72 0.67 0.65 0.65 0.64 0.63 0.68 0.73 0.74 0.77 0.78 0.76 0.73 0.68 0.68
0.96 1.08 1.16 1.17 1.18 1.20 1.10 1.11 1.07 0.99 1.04 1.03 1.07 1.06 1.07 1.06 1.01 0.97 0.97 0.98 1.01 1.01 1.02 1.03 1.01 0.95 0.91 0.90 0.79 0.74 0.76 0.77 0.74 0.72 0.74 0.77 0.77 0.77 0.80 0.80 0.78 0.74 0.72
0.88 0.93 0.98 0.99 1.01 1.02 0.98 0.95 0.96 0.94 0.96 0.94 0.93 0.93 0.94 0.93 0.91 0.93 0.94 0.94 0.94 0.96 1.01 1.04 1.03 0.98 0.99 1.00 0.86 0.82 0.73 0.80 0.87 0.85 0.83 0.80 0.80 0.79 0.79 0.78 0.77 0.74 0.71
0.75 0.81 0.80 0.82 0.83 0.86 0.88 0.85 0.87 0.89 0.87 0.83 0.82 0.84 0.88 0.90 0.92 0.91 0.92 0.90 0.92 0.98 1.00 1.04 1.05 1.01 0.96 1.03 1.01 0.90 0.78 0.76 0.84 0.92 0.91 0.91 0.88 0.83 0.82 0.81 0.78 0.76 0.73
0.66 0.73 0.74 0.73 0.75 0.78 0.81 0.72 0.71 0.68 0.68 0.75 0.81 0.84 0.87 0.93 0.89 0.93 0.96 0.98 1.00 1.05 1.06 1.08 1.10 1.08 1.07 1.00 1.03 1.05 1.02 0.96 0.82 0.77 0.89 0.89 0.91 0.87 0.85 0.80 0.77 0.71 0.70
0.62 0.61 0.64 0.66 0.68 0.73 0.77 0.74 0.77 0.78 0.79 0.79 0.79 0.79 0.83 0.87 0.94 0.98 1.03 1.09 1.11 1.14 1.14 1.13 1.13 1.14 1.14 1.05 1.02 1.01 1.01 1.01 0.95 0.86 0.78 0.83 0.86 0.88 0.84 0.81 0.77 0.71 0.70
0.63 0.62 0.64 0.64 0.67 0.73 0.75 0.75 0.76 0.75 0.75 0.74 0.74 0.74 0.78 0.83 0.91 1.00 1.11 1.15 1.20 1.16 1.16 1.15 1.12 1.16 1.11 1.08 1.05 1.01 0.97 0.89 0.89 0.87 0.83 0.82 0.79 0.82 0.82 0.76 0.71 0.72 0.71

GFSSE_prec_pwat_075.txt.gz
Precipitable_Water
1.54 1.69 1.66 1.58 1.55 1.45 1.42 1.41 1.35 1.56 1.50 1.53 1.61 1.54 1.46 1.33 1.23 1.14 1.06 1.05 1.11 1.15 1.14 1.09 1.04 0.96 0.91 0.90 0.90 0.89 0.90 0.91 0.93 0.89 0.89 0.93 0.95 0.94 0.91 0.87 0.89 0.90 0.95
1.56 1.62 1.57 1.45 1.41 1.42 1.46 1.51 1.44 1.43 1.48 1.42 1.37 1.35 1.28 1.20 1.07 1.00 0.99 1.05 1.11 1.12 1.09 1.07 0.98 0.95 0.94 0.93 0.92 0.89 0.86 0.86 0.87 0.91 0.88 0.88 0.95 0.92 0.92 1.03 0.99 0.99 0.97
1.59 1.68 1.62 1.46 1.46 1.48 1.46 1.53 1.57 1.50 1.44 1.35 1.30 1.24 1.24 1.11 1.03 1.01 1.01 1.05 1.06 1.05 1.02 0.99 1.05 1.05 1.03 1.04 0.90 0.86 0.80 0.81 0.82 0.82 0.84 0.86 0.87 0.88 0.99 0.97 0.95 0.94 0.94
1.53 1.67 1.70 1.63 1.73 1.60 1.58 1.53 1.47 1.51 1.53 1.42 1.36 1.26 1.13 1.09 1.05 1.04 1.03 1.01 1.02 1.01 0.98 0.98 0.97 0.99 1.00 0.99 0.92 0.88 0.81 0.76 0.77 0.77 0.77 0.80 0.83 0.87 0.91 0.89 0.86 0.86 0.85
1.46 1.57 1.64 1.44 1.69 1.67 1.69 1.64 1.57 1.47 1.62 1.51 1.38 1.17 1.09 1.16 1.13 1.08 0.98 0.94 0.96 0.98 1.01 0.96 0.92 0.96 1.00 0.96 0.90 0.77 0.71 0.70 0.71 0.72 0.71 0.73 0.77 0.83 0.84 0.81 0.75 0.77 0.73
1.41 1.52 1.60 1.55 1.42 1.54 1.73 1.61 1.47 1.39 1.55 1.70 1.41 1.13 1.08 1.14 1.17 1.04 0.94 0.87 0.94 0.99 0.96 0.89 0.88 0.95 0.96 0.93 0.88 0.76 0.69 0.67 0.68 0.68 0.71 0.73 0.74 0.79 0.75 0.73 0.72 0.68 0.68
1.29 1.41 1.48 1.56 1.50 1.51 1.54 1.57 1.54 1.55 1.49 1.75 1.43 1.11 1.13 1.09 1.10 0.99 0.92 0.88 0.92 0.96 0.92 0.89 0.95 0.97 0.97 0.92 0.85 0.82 0.70 0.68 0.66 0.68 0.68 0.70 0.75 0.76 0.73 0.70 0.68 0.67 0.65
1.41 1.45 1.44 1.49 1.55 1.48 1.50 1.51 1.57 1.71 1.61 1.76 1.32 1.16 1.17 1.18 1.07 0.97 0.91 0.86 0.89 0.93 0.86 0.90 1.00 0.98 0.96 0.92 0.89 0.81 0.79 0.72 0.70 0.68 0.68 0.69 0.73 0.74 0.71 0.69 0.67 0.65 0.62
1.48 1.50 1.52 1.51 1.50 1.48 1.50 1.52 1.53 1.61 1.69 1.69 1.40 1.18 1.15 1.05 1.03 0.97 0.90 0.84 0.87 0.89 0.89 0.88 0.96 1.00 0.98 0.96 0.93 0.87 0.83 0.74 0.66 0.67 0.69 0.71 0.72 0.72 0.70 0.68 0.67 0.63 0.62
1.45 1.47 1.49 1.51 1.56 1.54 1.58 1.70 1.63 1.73 1.73 1.57 1.39 1.31 1.12 1.17 1.05 0.96 0.86 0.77 0.76 0.87 0.89 0.84 0.84 0.96 0.98 1.00 0.95 0.92 0.83 0.74 0.64 0.65 0.68 0.71 0.72 0.71 0.70 0.66 0.65 0.64 0.64
1.37 1.45 1.51 1.50 1.52 1.48 1.53 1.52 1.59 1.70 1.66 1.58 1.47 1.39 1.22 1.10 1.04 0.94 0.86 0.78 0.75 0.81 0.87 0.84 0.85 0.91 0.95 0.98 0.93 0.88 0.81 0.73 0.65 0.63 0.68 0.71 0.71 0.68 0.65 0.65 0.65 0.64 0.63
1.19 1.33 1.42 1.46 1.45 1.49 1.49 1.47 1.48 1.54 1.56 1.57 1.39 1.23 1.04 1.01 1.01 0.99 0.91 0.83 0.78 0.78 0.82 0.86 0.85 0.90 0.91 0.95 0.92 0.83 0.76 0.71 0.68 0.67 0.71 0.71 0.69 0.68 0.64 0.63 0.65 0.66 0.62
1.14 1.30 1.39 1.39 1.42 1.42 1.40 1.42 1.47 1.51 1.56 1.51 1.37 1.08 1.01 1.03 1.08 1.05 0.98 0.90 0.82 0.83 0.84 0.85 0.82 0.78 0.86 0.85 0.81 0.77 0.73 0.69 0.70 0.71 0.69 0.69 0.69 0.67 0.67 0.66 0.64 0.63 0.59
1.10 1.18 1.34 1.37 1.36 1.36 1.40 1.40 1.46 1.49 1.51 1.48 1.38 1.10 1.05 1.04 1.05 1.04 1.01 0.95 0.90 0.88 0.86 0.84 0.79 0.76 0.72 0.75 0.72 0.68 0.68 0.66 0.67 0.68 0.69 0.69 0.71 0.71 0.68 0.66 0.64 0.61 0.59
1.10 1.17 1.26 1.30 1.28 1.31 1.35 1.40 1.44 1.45 1.43 1.46 1.38 1.14 1.06 1.05 1.07 1.09 1.07 0.99 0.94 0.95 0.95 0.88 0.80 0.73 0.67 0.67 0.64 0.62 0.63 0.63 0.67 0.68 0.72 0.73 0.76 0.76 0.76 0.74 0.71 0.69 0.62
1.13 1.19 1.27 1.27 1.28 1.31 1.34 1.34 1.36 1.43 1.44 1.43 1.39 1.21 1.09 1.06 1.06 1.06 1.01 0.98 0.98 1.00 1.00 0.95 0.88 0.77 0.66 0.62 0.58 0.59 0.58 0.60 0.66 0.70 0.74 0.79 0.80 0.79 0.80 0.79 0.77 0.75 0.69
1.19 1.22 1.24 1.28 1.29 1.30 1.30 1.33 1.38 1.37 1.41 1.37 1.29 1.23 1.12 1.05 1.02 1.00 0.98 0.99 1.00 1.03 1.01 0.97 0.92 0.85 0.71 0.61 0.56 0.60 0.59 0.58 0.59 0.63 0.73 0.76 0.80 0.81 0.81 0.81 0.77 0.70 0.67
1.19 1.22 1.30 1.35 1.38 1.34 1.34 1.37 1.41 1.39 1.34 1.27 1.24 1.26 1.13 1.04 1.02 0.97 0.93 0.96 1.01 1.04 1.03 1.01 0.97 0.88 0.75 0.67 0.58 0.55 0.59 0.59 0.59 0.60 0.65 0.74 0.79 0.78 0.80 0.78 0.74 0.71 0.65
1.14 1.24 1.26 1.31 1.30 1.35 1.39 1.37 1.42 1.39 1.30 1.26 1.19 1.17 1.04 0.99 0.99 0.94 0.92 0.93 0.99 1.02 1.04 1.05 1.03 0.98 0.88 0.78 0.69 0.63 0.58 0.58 0.61 0.65 0.63 0.68 0.76 0.79 0.78 0.79 0.78 0.75 0.69
1.11 1.23 1.27 1.29 1.35 1.37 1.33 1.34 1.35 1.31 1.26 1.27 1.17 1.10 1.04 1.01 1.00 0.96 0.94 0.92 0.94 1.01 1.03 1.06 1.06 1.06 1.00 0.91 0.82 0.75 0.71 0.68 0.69 0.69 0.69 0.73 0.77 0.82 0.84 0.85 0.85 0.82 0.75
1.03 1.20 1.26 1.28 1.32 1.31 1.28 1.24 1.25 1.19 1.19 1.13 1.09 1.13 1.10 1.05 0.99 0.96 0.98 0.97 0.94 0.93 0.99 1.05 1.06 1.01 0.99 0.96 0.87 0.82 0.80 0.79 0.76 0.77 0.80 0.82 0.83 0.86 0.87 0.87 0.86 0.83 0.79
0.88 1.01 1.13 1.19 1.25 1.27 1.25 1.25 1.23 1.18 1.18 1.13 1.14 1.09 1.06 1.04 1.01 0.99 1.00 0.94 0.95 0.91 0.96 1.00 1.01 1.00 1.01 1.01 0.89 0.85 0.74 0.79 0.84 0.87 0.89 0.89 0.90 0.92 0.92 0.90 0.88 0.86 0.81
0.79 0.85 0.93 0.99 1.06 1.17 1.19 1.17 1.13 1.10 1.09 1.04 1.01 1.00 1.03 1.03 1.04 1.04 1.01 0.94 0.93 0.93 0.88 0.90 0.98 0.99 0.95 1.01 1.01 0.88 0.76 0.71 0.86 0.92 0.91 0.89 0.86 0.87 0.88 0.88 0.87 0.87 0.84
0.73 0.82 0.84 0.89 0.92 1.00 1.00 0.94 0.92 0.88 0.86 0.87 0.87 0.89 0.90 0.96 0.96 0.97 0.95 0.91 0.91 0.91 0.92 0.92 1.00 1.03 1.03 0.96 1.03 1.03 0.98 0.92 0.81 0.76 0.90 0.91 0.89 0.87 0.86 0.86 0.85 0.84 0.83
0.67 0.72 0.77 0.81 0.84 0.90 0.91 0.86 0.82 0.80 0.81 0.83 0.83 0.80 0.83 0.88 0.90 0.90 0.91 0.90 0.92 0.98 1.00 1.02 1.07 1.06 1.10 1.04 1.02 1.02 0.94 0.93 0.88 0.82 0.71 0.77 0.87 0.88 0.92 0.87 0.86 0.84 0.81
0.67 0.67 0.68 0.69 0.71 0.77 0.79 0.80 0.78 0.76 0.75 0.73 0.72 0.73 0.78 0.86 0.88 0.90 0.96 0.93 0.97 1.04 1.10 1.11 1.13 1.14 1.12 1.10 1.08 1.03 0.97 0.87 0.90 0.75 0.76 0.79 0.80 0.86 0.86 0.85 0.82 0.80 0.77

GFSSE_prec_pwat_078.txt.gz
Precipitable_Water
1.47 1.66 1.64 1.53 1.51 1.47 1.36 1.39 1.46 1.47 1.44 1.53 1.57 1.62 1.54 1.53 1.43 1.31 1.22 1.12 1.15 1.17 1.12 1.11 1.07 0.97 0.98 1.00 0.96 0.92 0.92 0.93 0.95 0.98 0.97 0.98 0.93 0.88 0.86 0.88 0.95 1.05 1.08
1.58 1.69 1.63 1.51 1.54 1.52 1.48 1.54 1.58 1.50 1.44 1.51 1.53 1.56 1.58 1.51 1.40 1.31 1.21 1.16 1.19 1.16 1.11 1.09 0.99 0.96 1.00 0.99 0.96 0.95 0.92 0.95 0.95 0.99 1.00 0.96 1.03 1.05 1.02 0.98 0.96 0.97 0.96
1.54 1.71 1.69 1.62 1.58 1.58 1.53 1.60 1.63 1.58 1.52 1.57 1.63 1.54 1.55 1.41 1.32 1.23 1.22 1.20 1.19 1.15 1.10 1.02 0.97 0.96 0.95 0.96 0.93 0.91 0.92 0.90 0.88 0.88 0.85 0.94 1.06 1.07 1.00 0.96 0.94 0.87 0.86
1.55 1.68 1.65 1.60 1.59 1.58 1.60 1.64 1.64 1.67 1.56 1.58 1.59 1.51 1.44 1.31 1.31 1.18 1.21 1.24 1.21 1.14 1.03 1.00 1.03 0.95 0.95 0.93 0.85 0.81 0.82 0.79 0.80 0.80 0.82 0.93 0.95 0.96 0.93 0.90 0.85 0.85 0.78
1.42 1.60 1.56 1.44 1.43 1.56 1.55 1.55 1.77 1.71 1.65 1.55 1.46 1.40 1.39 1.17 1.22 1.19 1.15 1.22 1.17 1.10 1.11 1.11 1.10 1.03 0.97 0.88 0.80 0.76 0.74 0.74 0.76 0.77 0.80 0.85 0.89 0.86 0.82 0.80 0.75 0.75 0.73
1.36 1.59 1.59 1.46 1.42 1.45 1.40 1.36 1.67 1.79 1.61 1.51 1.41 1.37 1.30 1.14 1.08 1.18 1.16 1.19 1.11 1.02 0.98 1.02 1.04 1.01 0.91 0.77 0.74 0.72 0.71 0.71 0.70 0.72 0.74 0.78 0.78 0.78 0.76 0.75 0.71 0.71 0.70
1.31 1.50 1.61 1.51 1.45 1.44 1.37 1.36 1.42 1.48 1.66 1.67 1.50 1.45 1.31 1.15 1.08 1.25 1.15 1.17 1.05 0.97 0.95 1.01 1.02 0.98 0.88 0.84 0.74 0.71 0.71 0.71 0.70 0.70 0.73 0.77 0.78 0.75 0.75 0.72 0.71 0.69 0.67
1.31 1.45 1.53 1.52 1.46 1.48 1.48 1.58 1.66 1.64 1.63 1.62 1.58 1.48 1.35 1.09 1.10 1.27 1.11 1.11 0.97 0.92 0.95 1.00 1.02 0.97 0.94 0.84 0.80 0.75 0.73 0.73 0.71 0.72 0.76 0.77 0.78 0.77 0.73 0.70 0.67 0.66 0.65
1.35 1.44 1.53 1.57 1.55 1.52 1.53 1.49 1.59 1.59 1.62 1.63 1.59 1.55 1.32 1.10 1.12 1.13 1.08 1.02 0.92 0.96 1.01 1.02 1.01 1.00 0.95 0.89 0.84 0.79 0.74 0.74 0.72 0.75 0.75 0.76 0.77 0.75 0.71 0.70 0.67 0.65 0.64
1.31 1.42 1.48 1.59 1.62 1.59 1.57 1.51 1.55 1.60 1.62 1.66 1.64 1.55 1.30 1.11 1.13 1.06 1.01 0.96 0.92 0.97 1.05 1.02 1.03 1.03 0.97 0.92 0.86 0.82 0.78 0.74 0.71 0.74 0.75 0.78 0.78 0.75 0.71 0.69 0.67 0.65 0.64
1.18 1.35 1.47 1.48 1.50 1.50 1.50 1.54 1.55 1.59 1.65 1.73 1.62 1.51 1.33 1.12 1.06 1.03 0.94 0.92 0.89 0.95 1.01 1.04 1.05 1.04 1.01 0.95 0.88 0.84 0.81 0.74 0.72 0.73 0.76 0.77 0.77 0.74 0.71 0.68 0.66 0.66 0.64
1.08 1.23 1.41 1.45 1.47 1.48 1.51 1.54 1.53 1.60 1.68 1.62 1.58 1.42 1.19 0.99 0.91 0.87 0.93 0.92 0.89 0.90 0.93 1.01 1.06 1.03 0.99 0.93 0.87 0.81 0.78 0.78 0.76 0.74 0.75 0.73 0.73 0.73 0.72 0.70 0.66 0.65 0.64
1.07 1.17 1.31 1.43 1.49 1.49 1.47 1.52 1.55 1.58 1.64 1.58 1.46 1.30 1.07 0.97 0.95 0.90 0.87 0.90 0.91 0.88 0.92 0.99 1.04 0.97 0.93 0.90 0.85 0.83 0.80 0.80 0.76 0.74 0.74 0.74 0.74 0.74 0.73 0.72 0.65 0.64 0.63
1.07 1.14 1.23 1.38 1.39 1.39 1.42 1.48 1.55 1.54 1.50 1.44 1.43 1.29 1.12 1.03 0.95 0.88 0.82 0.81 0.82 0.85 0.86 0.91 0.91 0.89 0.87 0.84 0.83 0.74 0.75 0.75 0.74 0.72 0.74 0.73 0.75 0.77 0.74 0.70 0.67 0.64 0.63
1.06 1.13 1.20 1.31 1.34 1.32 1.36 1.46 1.50 1.52 1.47 1.44 1.42 1.29 1.08 1.00 0.93 0.90 0.82 0.82 0.86 0.89 0.86 0.84 0.82 0.81 0.79 0.80 0.74 0.69 0.67 0.69 0.71 0.70 0.72 0.77 0.77 0.77 0.78 0.75 0.71 0.68 0.65
1.09 1.12 1.21 1.25 1.30 1.30 1.36 1.43 1.47 1.47 1.41 1.39 1.30 1.14 1.08 1.05 1.02 0.96 0.89 0.92 0.93 0.93 0.90 0.85 0.78 0.75 0.75 0.72 0.68 0.67 0.64 0.67 0.70 0.70 0.74 0.79 0.82 0.83 0.83 0.81 0.80 0.77 0.72
1.07 1.19 1.20 1.24 1.29 1.28 1.33 1.40 1.44 1.46 1.45 1.35 1.27 1.10 1.11 1.08 1.05 1.05 0.98 0.97 1.03 1.02 0.99 0.92 0.84 0.77 0.70 0.66 0.63 0.64 0.63 0.66 0.69 0.70 0.76 0.82 0.83 0.86 0.84 0.83 0.80 0.78 0.74
1.03 1.15 1.27 1.26 1.26 1.29 1.34 1.39 1.44 1.45 1.42 1.38 1.28 1.12 1.07 1.05 1.02 0.99 1.02 1.05 1.09 1.07 1.05 0.97 0.90 0.83 0.75 0.65 0.60 0.58 0.59 0.64 0.66 0.69 0.73 0.78 0.84 0.86 0.84 0.83 0.82 0.76 0.73
1.01 1.18 1.26 1.27 1.30 1.33 1.33 1.38 1.42 1.44 1.43 1.38 1.32 1.17 1.09 1.07 1.08 1.04 1.04 1.05 1.10 1.08 1.05 1.00 0.98 0.96 0.89 0.80 0.69 0.66 0.63 0.63 0.61 0.62 0.68 0.75 0.80 0.83 0.85 0.85 0.83 0.80 0.78
1.00 1.18 1.28 1.32 1.34 1.34 1.35 1.39 1.39 1.40 1.42 1.35 1.25 1.17 1.16 1.10 1.07 1.02 1.00 0.99 1.04 1.04 1.04 1.04 1.01 1.02 1.00 0.95 0.88 0.80 0.74 0.71 0.71 0.72 0.73 0.72 0.78 0.84 0.87 0.86 0.87 0.86 0.82
0.96 1.17 1.26 1.26 1.32 1.31 1.29 1.30 1.29 1.23 1.30 1.30 1.24 1.15 1.18 1.09 1.02 0.99 0.97 0.97 0.97 0.96 1.00 1.05 1.05 0.98 0.99 1.00 0.91 0.86 0.85 0.84 0.81 0.80 0.81 0.81 0.85 0.88 0.96 0.98 0.96 0.94 0.90
0.89 1.08 1.24 1.27 1.31 1.34 1.34 1.33 1.34 1.28 1.26 1.25 1.22 1.19 1.21 1.05 1.01 1.00 0.97 0.94 0.95 0.94 0.93 0.97 0.99 0.97 0.98 1.00 0.89 0.86 0.77 0.80 0.85 0.85 0.85 0.87 0.88 0.94 0.96 0.97 0.98 0.96 0.91
0.81 0.94 1.09 1.19 1.26 1.31 1.30 1.31 1.29 1.30 1.25 1.16 1.19 1.19 1.15 1.10 1.05 0.99 0.96 0.98 0.97 0.96 0.92 0.94 0.93 0.90 0.89 0.97 0.96 0.88 0.79 0.74 0.80 0.90 0.85 0.91 0.90 0.89 0.93 0.92 0.96 0.96 0.93
0.71 0.83 0.95 1.04 1.10 1.20 1.27 1.23 1.21 1.15 1.09 1.13 1.11 1.06 1.03 1.05 1.05 1.01 0.98 1.01 1.03 1.00 0.94 0.90 0.89 0.87 0.88 0.88 0.97 1.00 0.99 0.94 0.84 0.74 0.86 0.86 0.93 0.88 0.85 0.90 0.88 0.88 0.89
0.67 0.75 0.81 0.89 0.98 1.05 1.08 1.10 1.07 1.04 1.01 1.02 0.99 0.95 0.97 0.98 1.00 1.01 1.00 1.01 0.98 0.96 0.93 0.92 0.90 0.88 0.92 0.96 0.97 0.98 0.96 0.98 1.04 0.83 0.74 0.82 0.84 0.89 0.88 0.88 0.83 0.90 0.89
0.64 0.70 0.74 0.77 0.81 0.91 0.94 0.94 0.90 0.87 0.86 0.86 0.87 0.85 0.85 0.89 0.92 0.94 0.96 0.96 0.97 0.96 0.94 0.93 0.96 1.01 1.04 1.04 1.05 1.03 0.98 0.92 0.89 0.85 0.84 0.76 0.80 0.81 0.81 0.85 0.88 0.86 0.83